Location: Perryvale
(54.4667°N, 113.3833°W)
Time: 10:32:54
(UTC+00:00)

Vanguard 3 - Pass Details

Date: 27 May 2024
Orbit: 509 x 3231 km, 33.3° (Epoch: 16 June)

Event Time Altitude Azimuth Distance (km) Brightness Sun altitude
Rises 07:07:47 0° 258° (WSW) 5,489 11.3 -14.0°
Reaches altitude 10° 07:14:05 10° 235° (SW) 5,068 10.9 -14.1°
Maximum altitude 07:20:02 13° 212° (SSW) 5,215 10.8 -14.1°
Enters shadow 07:23:33 12° 199° (SSW) 5,509 10.8 -14.1°
